Time,TemperatureF,DewpointF,PressureIn,WindDirection,WindDirectionDegrees,WindSpeedMPH,WindSpeedGustMPH,Humidity,HourlyPrecipIn,Conditions,Clouds,dailyrainin,SoftwareType,DateUTC
2013-04-22 00:02:00,24.0,20.0,30.09,NE,49,16.0,27.0,83,0.00,,,0.00,,2013-04-22 06:02:00,
2013-04-22 00:11:00,24.0,20.0,30.09,NE,49,16.0,27.0,83,0.00,,,0.00,,2013-04-22 06:11:00,
2013-04-22 00:21:00,23.0,19.0,30.09,North,11,13.0,22.0,84,0.00,,,0.00,,2013-04-22 06:21:00,
2013-04-22 00:32:00,23.0,19.0,30.10,NNE,21,16.0,31.0,84,0.00,,,0.00,,2013-04-22 06:32:00,
2013-04-22 00:41:00,23.0,19.0,30.10,NNE,21,16.0,31.0,84,0.00,,,0.00,,2013-04-22 06:41:00,
2013-04-22 00:52:00,23.0,18.0,30.10,NNE,22,15.0,28.0,82,0.00,,,0.00,,2013-04-22 06:52:00,
2013-04-22 01:01:00,23.0,17.0,30.12,North,9,15.0,22.0,79,0.00,,,0.00,,2013-04-22 07:01:00,
2013-04-22 01:11:00,23.0,17.0,30.12,North,9,15.0,22.0,79,0.00,,,0.00,,2013-04-22 07:11:00,
2013-04-22 01:21:00,23.0,17.0,30.11,NNE,28,14.0,24.0,77,0.00,,,0.00,,2013-04-22 07:21:00,
2013-04-22 01:31:00,23.0,17.0,30.14,NNW,333,8.0,21.0,76,0.00,,,0.00,,2013-04-22 07:31:00,
2013-04-22 01:42:00,23.0,17.0,30.14,NNW,333,8.0,21.0,76,0.00,,,0.00,,2013-04-22 07:42:00,
2013-04-22 01:52:00,23.0,17.0,30.14,North,11,6.0,17.0,76,0.00,,,0.00,,2013-04-22 07:52:00,
2013-04-22 02:01:00,24.0,17.0,30.14,NNW,340,10.0,19.0,73,0.00,,,0.00,,2013-04-22 08:01:00,
2013-04-22 02:11:00,24.0,17.0,30.14,NNW,340,10.0,19.0,73,0.00,,,0.00,,2013-04-22 08:11:00,
2013-04-22 02:21:00,24.0,16.0,30.15,NNE,12,8.0,17.0,71,0.00,,,0.00,,2013-04-22 08:21:00,
2013-04-22 02:31:00,24.0,16.0,30.14,NNE,28,9.0,15.0,71,0.00,,,0.00,,2013-04-22 08:31:00,
2013-04-22 02:41:00,24.0,16.0,30.14,NNE,28,9.0,15.0,71,0.00,,,0.00,,2013-04-22 08:41:00,
2013-04-22 02:52:00,24.0,16.0,30.14,NE,37,6.0,17.0,71,0.00,,,0.00,,2013-04-22 08:52:00,
2013-04-22 03:01:00,23.0,17.0,30.14,North,11,7.0,16.0,78,0.00,,,0.00,,2013-04-22 09:01:00,
2013-04-22 03:11:00,23.0,17.0,30.14,North,11,7.0,16.0,78,0.00,,,0.00,,2013-04-22 09:11:00,
2013-04-22 03:21:00,23.0,17.0,30.14,NE,34,10.0,15.0,77,0.00,,,0.00,,2013-04-22 09:21:00,
2013-04-22 03:32:00,23.0,17.0,30.15,NNE,23,7.0,15.0,76,0.00,,,0.00,,2013-04-22 09:32:00,
2013-04-22 03:42:00,23.0,17.0,30.15,NNE,23,7.0,15.0,76,0.00,,,0.00,,2013-04-22 09:42:00,
2013-04-22 03:52:00,23.0,16.0,30.15,North,360,8.0,17.0,75,0.00,,,0.00,,2013-04-22 09:52:00,
2013-04-22 04:03:00,23.0,16.0,30.16,North,360,5.0,18.0,75,0.00,,,0.00,,2013-04-22 10:03:00,
2013-04-22 04:12:00,23.0,16.0,30.16,North,360,5.0,18.0,75,0.00,,,0.00,,2013-04-22 10:12:00,
2013-04-22 04:22:00,23.0,17.0,30.16,NE,42,10.0,15.0,76,0.00,,,0.00,,2013-04-22 10:22:00,
2013-04-22 04:32:00,23.0,16.0,30.16,NNE,18,9.0,16.0,74,0.00,,,0.00,,2013-04-22 10:32:00,
2013-04-22 04:42:00,23.0,16.0,30.16,NNE,18,9.0,16.0,74,0.00,,,0.00,,2013-04-22 10:42:00,
2013-04-22 04:52:00,23.0,15.0,30.17,North,350,5.0,20.0,71,0.00,,,0.00,,2013-04-22 10:52:00,
2013-04-22 05:02:00,23.0,16.0,30.17,NNE,17,9.0,16.0,74,0.00,,,0.00,,2013-04-22 11:02:00,
2013-04-22 05:12:00,23.0,16.0,30.17,NNE,17,9.0,16.0,74,0.00,,,0.00,,2013-04-22 11:12:00,
2013-04-22 05:22:00,23.0,16.0,30.18,NNE,17,10.0,18.0,75,0.00,,,0.00,,2013-04-22 11:22:00,
2013-04-22 05:32:00,22.0,16.0,30.19,NE,34,14.0,20.0,77,0.00,,,0.00,,2013-04-22 11:32:00,
2013-04-22 05:42:00,22.0,16.0,30.19,NE,34,14.0,20.0,77,0.00,,,0.00,,2013-04-22 11:42:00,
2013-04-22 05:52:00,22.0,16.0,30.19,NNE,18,11.0,24.0,76,0.00,,,0.00,,2013-04-22 11:52:00,
2013-04-22 06:01:00,22.0,17.0,30.20,NNE,18,12.0,19.0,80,0.00,,,0.00,,2013-04-22 12:01:00,
2013-04-22 06:12:00,22.0,17.0,30.20,NNE,18,12.0,19.0,80,0.00,,,0.00,,2013-04-22 12:12:00,
2013-04-22 06:21:00,22.0,17.0,30.21,NNE,26,15.0,27.0,81,0.00,,,0.00,,2013-04-22 12:21:00,
2013-04-22 06:31:00,21.0,16.0,30.23,NNE,30,10.0,25.0,80,0.00,,,0.00,,2013-04-22 12:31:00,
2013-04-22 06:42:00,21.0,16.0,30.23,NNE,30,10.0,25.0,80,0.00,,,0.00,,2013-04-22 12:42:00,
2013-04-22 06:52:00,21.0,16.0,30.24,North,9,13.0,23.0,79,0.00,,,0.00,,2013-04-22 12:52:00,
2013-04-22 07:01:00,21.0,16.0,30.26,NNW,331,10.0,21.0,79,0.00,,,0.00,,2013-04-22 13:01:00,
2013-04-22 07:11:00,21.0,16.0,30.26,NNW,331,10.0,21.0,79,0.00,,,0.00,,2013-04-22 13:11:00,
2013-04-22 07:22:00,21.0,16.0,30.27,NNE,15,12.0,19.0,80,0.00,,,0.00,,2013-04-22 13:22:00,
2013-04-22 07:31:00,22.0,16.0,30.27,North,9,6.0,19.0,79,0.00,,,0.00,,2013-04-22 13:31:00,
2013-04-22 07:41:00,22.0,16.0,30.27,North,9,6.0,19.0,79,0.00,,,0.00,,2013-04-22 13:41:00,
2013-04-22 07:52:00,22.0,16.0,30.29,NNW,333,8.0,15.0,79,0.00,,,0.00,,2013-04-22 13:52:00,
2013-04-22 08:01:00,22.0,16.0,30.29,North,5,9.0,15.0,79,0.00,,,0.00,,2013-04-22 14:01:00,
2013-04-22 08:11:00,22.0,16.0,30.29,North,5,9.0,15.0,79,0.00,,,0.00,,2013-04-22 14:11:00,
2013-04-22 08:21:00,22.0,16.0,30.30,NNW,345,9.0,18.0,79,0.00,,,0.00,,2013-04-22 14:21:00,
2013-04-22 08:33:00,22.0,17.0,30.31,NNE,13,15.0,21.0,80,0.00,,,0.00,,2013-04-22 14:33:00,
2013-04-22 08:42:00,22.0,17.0,30.31,NNE,13,15.0,21.0,80,0.00,,,0.00,,2013-04-22 14:42:00,
2013-04-22 08:52:00,21.0,16.0,30.32,North,5,8.0,16.0,79,0.00,,,0.00,,2013-04-22 14:52:00,
2013-04-22 09:01:00,22.0,16.0,30.32,NNW,341,8.0,19.0,78,0.00,,,0.00,,2013-04-22 15:01:00,
2013-04-22 09:11:00,22.0,16.0,30.32,NNW,341,8.0,19.0,78,0.00,,,0.00,,2013-04-22 15:11:00,
2013-04-22 09:22:00,22.0,15.0,30.33,North,350,10.0,19.0,74,0.00,,,0.00,,2013-04-22 15:22:00,
2013-04-22 09:33:00,22.0,16.0,30.34,NNE,26,8.0,16.0,79,0.00,,,0.00,,2013-04-22 15:33:00,
2013-04-22 09:42:00,22.0,16.0,30.34,NNE,26,8.0,16.0,79,0.00,,,0.00,,2013-04-22 15:42:00,
2013-04-22 09:53:00,21.0,16.0,30.35,North,350,8.0,15.0,79,0.00,,,0.00,,2013-04-22 15:53:00,
2013-04-22 10:02:00,21.0,15.0,30.36,North,5,12.0,19.0,78,0.00,,,0.00,,2013-04-22 16:02:00,
2013-04-22 10:12:00,21.0,15.0,30.36,North,5,12.0,19.0,78,0.00,,,0.00,,2013-04-22 16:12:00,
2013-04-22 10:22:00,21.0,15.0,30.37,NNE,15,9.0,20.0,77,0.00,,,0.00,,2013-04-22 16:22:00,
2013-04-22 10:32:00,21.0,15.0,30.37,North,360,12.0,22.0,76,0.00,,,0.00,,2013-04-22 16:32:00,
2013-04-22 10:41:00,21.0,15.0,30.37,North,360,12.0,22.0,76,0.00,,,0.00,,2013-04-22 16:41:00,
2013-04-22 10:52:00,22.0,15.0,30.38,NNE,21,12.0,19.0,75,0.00,,,0.00,,2013-04-22 16:52:00,
2013-04-22 11:02:00,21.0,14.0,30.39,NNE,13,8.0,24.0,75,0.00,,,0.00,,2013-04-22 17:02:00,
2013-04-22 11:12:00,21.0,14.0,30.39,NNE,13,8.0,24.0,75,0.00,,,0.00,,2013-04-22 17:12:00,
2013-04-22 11:21:00,22.0,15.0,30.40,NNE,19,11.0,20.0,73,0.00,,,0.00,,2013-04-22 17:21:00,
2013-04-22 11:31:00,22.0,15.0,30.40,NNW,347,10.0,20.0,73,0.00,,,0.00,,2013-04-22 17:31:00,
2013-04-22 11:42:00,22.0,15.0,30.40,NNW,347,10.0,20.0,73,0.00,,,0.00,,2013-04-22 17:42:00,
2013-04-22 11:52:00,22.0,14.0,30.40,NE,41,12.0,21.0,70,0.01,,,0.01,,2013-04-22 17:52:00,
2013-04-22 12:01:00,23.0,16.0,30.40,North,360,11.0,21.0,74,0.01,,,0.01,,2013-04-22 18:01:00,
2013-04-22 12:12:00,23.0,16.0,30.40,North,360,11.0,21.0,74,0.01,,,0.01,,2013-04-22 18:12:00,
2013-04-22 12:21:00,24.0,18.0,30.40,North,10,9.0,20.0,76,0.01,,,0.01,,2013-04-22 18:21:00,
2013-04-22 12:31:00,24.0,16.0,30.40,NNE,30,10.0,21.0,71,0.01,,,0.01,,2013-04-22 18:31:00,
2013-04-22 12:42:00,24.0,16.0,30.40,NNE,30,10.0,21.0,71,0.01,,,0.01,,2013-04-22 18:42:00,
2013-04-22 12:52:00,25.0,17.0,30.40,NNE,26,13.0,21.0,70,0.00,,,0.01,,2013-04-22 18:52:00,
2013-04-22 13:01:00,24.0,16.0,30.40,NNE,13,16.0,23.0,71,0.00,,,0.01,,2013-04-22 19:01:00,
2013-04-22 13:11:00,24.0,16.0,30.40,NNE,13,16.0,23.0,71,0.00,,,0.01,,2013-04-22 19:11:00,
2013-04-22 13:21:00,25.0,17.0,30.40,NNE,30,13.0,24.0,72,0.00,,,0.01,,2013-04-22 19:21:00,
2013-04-22 13:32:00,25.0,17.0,30.39,NNE,19,12.0,19.0,71,0.00,,,0.01,,2013-04-22 19:32:00,
2013-04-22 13:42:00,25.0,17.0,30.39,NNE,19,12.0,19.0,71,0.00,,,0.01,,2013-04-22 19:42:00,
2013-04-22 13:52:00,26.0,17.0,30.39,NNE,27,10.0,18.0,69,0.00,,,0.01,,2013-04-22 19:52:00,
2013-04-22 14:01:00,26.0,17.0,30.39,NNW,345,12.0,20.0,68,0.00,,,0.01,,2013-04-22 20:01:00,
2013-04-22 14:11:00,26.0,17.0,30.39,NNW,345,12.0,20.0,68,0.00,,,0.01,,2013-04-22 20:11:00,
2013-04-22 14:22:00,26.0,17.0,30.39,NNE,33,11.0,19.0,68,0.00,,,0.01,,2013-04-22 20:22:00,
2013-04-22 14:31:00,27.0,20.0,30.39,NNE,14,10.0,20.0,73,0.00,,,0.01,,2013-04-22 20:31:00,
2013-04-22 14:41:00,27.0,20.0,30.39,NNE,14,10.0,20.0,73,0.00,,,0.01,,2013-04-22 20:41:00,
2013-04-22 14:52:00,27.0,18.0,30.39,NNE,16,9.0,21.0,67,0.00,,,0.01,,2013-04-22 20:52:00,
2013-04-22 15:01:00,27.0,19.0,30.40,North,355,13.0,18.0,71,0.00,,,0.01,,2013-04-22 21:01:00,
2013-04-22 15:11:00,27.0,19.0,30.40,North,355,13.0,18.0,71,0.00,,,0.01,,2013-04-22 21:11:00,
2013-04-22 15:21:00,26.0,17.0,30.40,NNW,345,12.0,18.0,68,0.00,,,0.01,,2013-04-22 21:21:00,
2013-04-22 15:32:00,27.0,20.0,30.40,NE,40,10.0,18.0,73,0.00,,,0.01,,2013-04-22 21:32:00,
2013-04-22 15:42:00,27.0,20.0,30.40,NE,40,10.0,18.0,73,0.00,,,0.01,,2013-04-22 21:42:00,
2013-04-22 15:53:00,27.0,19.0,30.40,NNE,33,9.0,20.0,72,0.00,,,0.01,,2013-04-22 21:53:00,
2013-04-22 16:02:00,27.0,19.0,30.40,NNE,33,9.0,20.0,72,0.00,,,0.01,,2013-04-22 22:02:00,
2013-04-22 16:12:00,27.0,19.0,30.40,NNE,33,9.0,20.0,72,0.00,,,0.01,,2013-04-22 22:12:00,
2013-04-22 16:22:00,27.0,18.0,30.40,NNE,19,12.0,20.0,68,0.00,,,0.01,,2013-04-22 22:22:00,
2013-04-22 16:32:00,28.0,18.0,30.39,NE,45,9.0,19.0,65,0.00,,,0.01,,2013-04-22 22:32:00,
2013-04-22 16:42:00,28.0,18.0,30.39,NE,45,9.0,19.0,65,0.00,,,0.01,,2013-04-22 22:42:00,
2013-04-22 16:52:00,28.0,17.0,30.40,NNE,28,9.0,18.0,63,0.00,,,0.01,,2013-04-22 22:52:00,
2013-04-22 17:02:00,28.0,17.0,30.40,NE,37,12.0,18.0,62,0.00,,,0.01,,2013-04-22 23:02:00,
2013-04-22 17:11:00,28.0,17.0,30.40,NE,37,12.0,18.0,62,0.00,,,0.01,,2013-04-22 23:11:00,
2013-04-22 17:21:00,28.0,16.0,30.39,NNE,30,12.0,18.0,61,0.00,,,0.01,,2013-04-22 23:21:00,
2013-04-22 17:32:00,26.0,14.0,30.40,NNE,32,8.0,17.0,61,0.00,,,0.01,,2013-04-22 23:32:00,
2013-04-22 17:42:00,26.0,14.0,30.40,NNE,32,8.0,17.0,61,0.00,,,0.01,,2013-04-22 23:42:00,
2013-04-22 17:52:00,28.0,17.0,30.40,NNE,23,6.0,12.0,64,0.00,,,0.01,,2013-04-22 23:52:00,
2013-04-22 18:01:00,28.0,15.0,30.40,North,11,7.0,13.0,58,0.00,,,0.01,,2013-04-23 00:01:00,
2013-04-22 18:12:00,28.0,15.0,30.40,North,11,7.0,13.0,58,0.00,,,0.01,,2013-04-23 00:12:00,
2013-04-22 18:21:00,28.0,15.0,30.40,NNE,27,6.0,12.0,57,0.00,,,0.01,,2013-04-23 00:21:00,
2013-04-22 18:31:00,28.0,14.0,30.40,NE,47,7.0,13.0,56,0.00,,,0.01,,2013-04-23 00:31:00,
2013-04-22 18:42:00,28.0,14.0,30.40,NE,47,7.0,13.0,56,0.00,,,0.01,,2013-04-23 00:42:00,
2013-04-22 18:52:00,27.0,13.0,30.40,NNE,23,8.0,13.0,56,0.00,,,0.01,,2013-04-23 00:52:00,
2013-04-22 19:01:00,27.0,15.0,30.41,NE,46,8.0,13.0,59,0.00,,,0.01,,2013-04-23 01:01:00,
2013-04-22 19:11:00,27.0,15.0,30.41,NE,46,8.0,13.0,59,0.00,,,0.01,,2013-04-23 01:11:00,
2013-04-22 19:21:00,26.0,12.0,30.40,NE,45,8.0,11.0,56,0.00,,,0.01,,2013-04-23 01:21:00,
2013-04-22 19:31:00,25.0,14.0,30.41,NE,42,5.0,8.0,62,0.00,,,0.01,,2013-04-23 01:31:00,
2013-04-22 19:42:00,25.0,14.0,30.41,NE,42,5.0,8.0,62,0.00,,,0.01,,2013-04-23 01:42:00,
2013-04-22 19:52:00,25.0,15.0,30.41,NNE,12,2.0,4.0,64,0.00,,,0.01,,2013-04-23 01:52:00,
2013-04-22 20:01:00,24.0,13.0,30.41,SSW,196,5.0,7.0,62,0.00,,,0.01,,2013-04-23 02:01:00,
2013-04-22 20:12:00,24.0,13.0,30.41,SSW,196,5.0,7.0,62,0.00,,,0.01,,2013-04-23 02:12:00,
2013-04-22 20:21:00,24.0,14.0,30.41,SSW,199,4.0,7.0,66,0.00,,,0.01,,2013-04-23 02:21:00,
2013-04-22 20:32:00,24.0,14.0,30.41,SW,229,6.0,9.0,64,0.00,,,0.01,,2013-04-23 02:32:00,
2013-04-22 20:42:00,24.0,14.0,30.41,SW,229,6.0,9.0,64,0.00,,,0.01,,2013-04-23 02:42:00,
2013-04-22 20:52:00,24.0,14.0,30.42,SW,230,6.0,10.0,65,0.00,,,0.01,,2013-04-23 02:52:00,
2013-04-22 21:01:00,23.0,13.0,30.42,SW,219,8.0,11.0,66,0.00,,,0.01,,2013-04-23 03:01:00,
2013-04-22 21:11:00,23.0,13.0,30.42,SW,219,8.0,11.0,66,0.00,,,0.01,,2013-04-23 03:11:00,
2013-04-22 21:21:00,23.0,13.0,30.42,SSW,213,7.0,11.0,65,0.00,,,0.01,,2013-04-23 03:21:00,
2013-04-22 21:32:00,23.0,13.0,30.42,SW,236,4.0,8.0,66,0.00,,,0.01,,2013-04-23 03:32:00,
2013-04-22 21:43:00,23.0,13.0,30.42,SW,236,4.0,8.0,66,0.00,,,0.01,,2013-04-23 03:43:00,
2013-04-22 21:53:00,23.0,13.0,30.43,WSW,237,3.0,6.0,66,0.00,,,0.01,,2013-04-23 03:53:00,
2013-04-22 22:02:00,21.0,11.0,30.43,WNW,302,5.0,8.0,66,0.00,,,0.01,,2013-04-23 04:02:00,
2013-04-22 22:12:00,21.0,11.0,30.43,WNW,302,5.0,8.0,66,0.00,,,0.01,,2013-04-23 04:12:00,
2013-04-22 22:22:00,21.0,11.0,30.43,WNW,302,5.0,8.0,66,0.00,,,0.01,,2013-04-23 04:22:00,
2013-04-22 22:32:00,20.0,11.0,30.43,WNW,293,5.0,8.0,69,0.00,,,0.01,,2013-04-23 04:32:00,
2013-04-22 22:43:00,20.0,11.0,30.43,WNW,293,5.0,8.0,69,0.00,,,0.01,,2013-04-23 04:43:00,
2013-04-22 22:53:00,21.0,12.0,30.43,WNW,295,5.0,8.0,68,0.00,,,0.01,,2013-04-23 04:53:00,
2013-04-22 23:02:00,21.0,12.0,30.43,NW,304,3.0,8.0,68,0.00,,,0.01,,2013-04-23 05:02:00,
2013-04-22 23:12:00,21.0,12.0,30.43,NW,304,3.0,8.0,68,0.00,,,0.01,,2013-04-23 05:12:00,
2013-04-22 23:22:00,20.0,11.0,30.42,NW,304,3.0,6.0,68,0.00,,,0.01,,2013-04-23 05:22:00,
2013-04-22 23:32:00,20.0,11.0,30.42,WNW,295,3.0,7.0,68,0.00,,,0.01,,2013-04-23 05:32:00,
2013-04-22 23:42:00,20.0,11.0,30.42,WNW,295,3.0,7.0,68,0.00,,,0.01,,2013-04-23 05:42:00,
2013-04-22 23:52:00,19.0,10.0,30.42,WNW,295,7.0,9.0,68,0.00,,,0.01,,2013-04-23 05:52:00,